Home   Weather   Shantou   Past weeks

Flag for China Past Weather in Shantou, Guangdong, China — Yesterday and Last 2 Weeks

Now
81 °F

Overcast.


Feels Like: 87 °F
Forecast: 76 / 82 °F
Wind: 6 mph from South

Location: Shantou Airport

Current Time: May 23, 2017 at 6:42:20 pm

Latest Report: May 23, 2017 at 6:00 pm


Visibility: N/A

Pressure: 29.71 "Hg

Humidity: 89%

Dew Point: 77 °F

Location of ShantouLocation

Past Weather in Shantou — Graph

°F

Shantou Temperature Yesterday

Maximum temperature yesterday: 88 °F (at 4:00 pm)
Minimum temperature yesterday: 73 °F (at 3:00 am)
Average temperature yesterday: 79 °F

High & Low Weather Summary for the Past Weeks

 TemperatureHumidityPressure
High90 °F (May 12, 3:00 pm)100% (May 9, 1:00 am)30.01 "Hg (May 9, 1:00 am)
Low68 °F (May 19, 7:00 pm)58% (May 17, 1:00 pm)29.71 "Hg (May 21, 3:00 pm)
Average77 °F86%29.84 "Hg
* Reported May 8 5:00 pm — May 23 5:00 pm, Shantou. Weather by CustomWeather, © 2017

Note: Actual official high and low records may vary slightly from our data, if they occured in-between our weather recording intervals... More about our weather records

Advertising

Shantou Weather History for the Previous 24 Hours

Scroll right to see more
 ConditionsComfort  
Time TempWeatherWind HumidityBarometerVisibility
5:00 pm
Tue, May 23
81 °FLight rain. Overcast.3 mph89%29.71 "Hg4 mi
4:00 pm82 °FOvercast.8 mph79%29.71 "HgN/A
3:00 pm82 °FPartly sunny.6 mph79%29.74 "HgN/A
2:00 pm82 °FBroken clouds.3 mph79%29.77 "HgN/A
1:00 pm81 °FBroken clouds.1 mph89%29.80 "HgN/A
12:00 pm82 °FBroken clouds.3 mph79%29.80 "HgN/A
11:00 am82 °FBroken clouds.1 mph74%29.83 "HgN/A
10:00 am81 °FPartly sunny.3 mph79%29.83 "HgN/A
9:00 am81 °FPartly sunny.6 mph79%29.83 "HgN/A
8:00 am79 °FPartly sunny.6 mph84%29.83 "HgN/A
7:00 am77 °FPartly sunny.6 mph89%29.80 "HgN/A
6:00 am77 °FPartly sunny.3 mph89%29.80 "Hg6 mi
5:00 am77 °FPartly cloudy.1 mph89%29.77 "HgN/A
4:00 am77 °FPassing clouds.1 mph89%29.77 "HgN/A
3:00 am77 °FPassing clouds.3 mph89%29.80 "HgN/A
2:00 am77 °FPassing clouds.1 mph89%29.80 "HgN/A
1:00 am77 °FPartly cloudy.3 mph89%29.80 "HgN/A
12:00 am77 °FPartly cloudy.3 mph94%29.83 "HgN/A
11:00 pm
Mon, May 22
77 °FPassing clouds.3 mph89%29.83 "HgN/A
10:00 pm77 °FPassing clouds.3 mph89%29.83 "HgN/A
9:00 pm79 °FClear.6 mph84%29.80 "Hg10 mi
8:00 pm79 °FClear.8 mph84%29.80 "Hg10 mi
7:00 pm81 °FPassing clouds.8 mph74%29.77 "HgN/A
6:00 pm82 °FPartly sunny.8 mph74%29.77 "HgN/A
Weather by CustomWeather, © 2017

See weather overviewHow to use our weather pages